| time (UTC) | temp F | wind direction | speed MPH | gust MPH | rain 1hr in | rain 24hr in | rain mn in | humidity % | barometer mb |
| 20260903051518 | 55 | 360 | 0.0 | 1.0 | 0.00 | 0.00 | 0.00 | 94 | 1029.8 |
| 20260903050527 | 56 | 23 | 0.0 | 2.0 | 0.00 | 0.00 | 0.00 | 92 | 1029.6 |
| 20260903045517 | 56 | 331 | 0.0 | 1.0 | 0.00 | 0.00 | 0.00 | 92 | 1029.6 |
| 20260903044527 | 56 | 336 | 0.0 | 2.0 | 0.00 | 0.00 | 0.00 | 94 | 1029.5 |
| 20260903043518 | 56 | 338 | 0.0 | 1.0 | 0.00 | 0.00 | 0.00 | 94 | 1029.5 |
| 20260903042527 | 56 | 54 | 1.0 | 2.0 | 0.00 | 0.00 | 0.00 | 94 | 1029.3 |
| 20260903041532 | 56 | 118 | 1.0 | 2.0 | 0.00 | 0.00 | 0.00 | 92 | 1029.4 |
| 20260903040527 | 56 | 329 | 0.0 | 1.0 | 0.00 | 0.00 | 0.00 | 91 | 1029.3 |
| 20260903035516 | 56 | 328 | 1.0 | 1.0 | 0.00 | 0.00 | 0.00 | 92 | 1029.3 |
| 20260903034600 | 56 | 339 | 1.0 | 2.0 | 0.00 | 0.00 | 0.00 | 91 | 1029.3 |
| 20260903033517 | 57 | 0.0 | 0.0 | 0.00 | 0.00 | 0.00 | 92 | 1029.2 | |
| 20260903032559 | 57 | 191 | 0.0 | 1.0 | 0.00 | 0.00 | 0.00 | 92 | 1029.2 |
| 20260903031523 | 57 | 0.0 | 0.0 | 0.00 | 0.00 | 0.00 | 92 | 1029.2 | |
| 20260903030517 | 57 | 190 | 0.0 | 1.0 | 0.00 | 0.00 | 0.00 | 92 | 1029.2 |
| 20260903025533 | 57 | 61 | 1.0 | 2.0 | 0.00 | 0.00 | 0.00 | 93 | 1029.2 |
| 20260903024517 | 58 | 0.0 | 0.0 | 0.00 | 0.00 | 0.00 | 90 | 1029.2 | |
| 20260903023533 | 58 | 9 | 0.0 | 1.0 | 0.00 | 0.00 | 0.00 | 91 | 1029.4 |
| 20260903022517 | 58 | 10 | 0.0 | 1.0 | 0.00 | 0.00 | 0.00 | 91 | 1029.3 |
| 20260903021533 | 58 | 8 | 1.0 | 2.0 | 0.00 | 0.00 | 0.00 | 90 | 1029.1 |
| 20260903020548 | 58 | 337 | 1.0 | 2.0 | 0.00 | 0.00 | 0.00 | 90 | 1029.0 |
| 20260903015518 | 58 | 3 | 0.0 | 1.0 | 0.00 | 0.00 | 0.00 | 90 | 1028.9 |
| 20260903014527 | 59 | 0.0 | 0.0 | 0.00 | 0.00 | 0.00 | 90 | 1028.8 | |
| 20260903013517 | 58 | 325 | 0.0 | 1.0 | 0.00 | 0.00 | 0.00 | 91 | 1028.9 |
| 20260903012547 | 59 | 323 | 0.0 | 1.0 | 0.00 | 0.00 | 0.00 | 89 | 1028.9 |
| 20260903011537 | 58 | 109 | 1.0 | 2.0 | 0.00 | 0.00 | 0.00 | 90 | 1028.9 |
| 20260903010523 | 59 | 77 | 1.0 | 2.0 | 0.00 | 0.00 | 0.00 | 89 | 1028.9 |
| 20260903005613 | 59 | 314 | 0.0 | 2.0 | 0.00 | 0.00 | 0.00 | 88 | 1028.7 |
| 20260903004518 | 59 | 337 | 2.0 | 3.0 | 0.00 | 0.00 | 0.00 | 89 | 1028.8 |
| 20260903003531 | 60 | 286 | 1.0 | 2.0 | 0.00 | 0.00 | 0.00 | 85 | 1028.7 |
| 20260903002517 | 60 | 329 | 0.0 | 2.0 | 0.00 | 0.00 | 0.00 | 87 | 1028.8 |
| 20260903001515 | 60 | 329 | 1.0 | 2.0 | 0.00 | 0.00 | 0.00 | 86 | 1028.7 |
| 20260903000537 | 60 | 325 | 2.0 | 3.0 | 0.00 | 0.00 | 0.00 | 85 | 1028.7 |
| 20260902235533 | 60 | 323 | 1.0 | 2.0 | 0.00 | 0.00 | 0.00 | 87 | 1028.7 |
| 20260902234537 | 61 | 304 | 0.0 | 2.0 | 0.00 | 0.00 | 0.00 | 86 | 1028.7 |
| 20260902233613 | 61 | 333 | 0.0 | 1.0 | 0.00 | 0.00 | 0.00 | 84 | 1028.7 |
| 20260902232517 | 61 | 0.0 | 0.0 | 0.00 | 0.00 | 0.00 | 84 | 1028.8 | |
| 20260902231536 | 61 | 336 | 1.0 | 1.0 | 0.00 | 0.00 | 0.00 | 84 | 1028.8 |
| 20260902230517 | 62 | 333 | 0.0 | 2.0 | 0.00 | 0.00 | 0.00 | 83 | 1028.6 |
| 20260902225533 | 63 | 292 | 0.0 | 1.0 | 0.00 | 0.00 | 0.00 | 83 | 1028.6 |
| 20260902224517 | 63 | 292 | 0.0 | 1.0 | 0.00 | 0.00 | 0.00 | 80 | 1028.6 |
| 20260902223517 | 63 | 313 | 0.0 | 1.0 | 0.00 | 0.00 | 0.00 | 83 | 1028.7 |
| 20260902222528 | 63 | 314 | 0.0 | 1.0 | 0.00 | 0.00 | 0.00 | 80 | 1028.5 |
| 20260902221517 | 64 | 314 | 0.0 | 1.0 | 0.00 | 0.00 | 0.00 | 80 | 1028.5 |
| 20260902220519 | 63 | 322 | 1.0 | 2.0 | 0.00 | 0.00 | 0.00 | 81 | 1028.4 |
| 20260902215523 | 64 | 328 | 1.0 | 1.0 | 0.00 | 0.00 | 0.00 | 79 | 1028.4 |
| 20260902214517 | 64 | 330 | 1.0 | 1.0 | 0.00 | 0.00 | 0.00 | 79 | 1028.3 |
| 20260902213533 | 65 | 328 | 0.0 | 1.0 | 0.00 | 0.00 | 0.00 | 77 | 1028.1 |
| 20260902212537 | 65 | 336 | 1.0 | 2.0 | 0.00 | 0.00 | 0.00 | 78 | 1028.1 |
| 20260902211533 | 66 | 175 | 0.0 | 1.0 | 0.00 | 0.00 | 0.00 | 77 | 1028.1 |
| 20260902210523 | 66 | 176 | 1.0 | 2.0 | 0.00 | 0.00 | 0.00 | 78 | 1028.0 |
| 20260902205517 | 67 | 174 | 1.0 | 1.0 | 0.00 | 0.00 | 0.00 | 77 | 1027.8 |
| 20260902204519 | 67 | 158 | 1.0 | 2.0 | 0.00 | 0.00 | 0.00 | 76 | 1027.9 |
| 20260902203543 | 67 | 207 | 0.0 | 2.0 | 0.00 | 0.00 | 0.00 | 75 | 1027.9 |
| 20260902202517 | 67 | 0.0 | 0.0 | 0.00 | 0.00 | 0.00 | 75 | 1027.8 | |
| 20260902201533 | 68 | 212 | 0.0 | 1.0 | 0.00 | 0.00 | 0.00 | 73 | 1027.9 |
| 20260902200517 | 68 | 187 | 1.0 | 2.0 | 0.00 | 0.00 | 0.00 | 74 | 1027.8 |
| 20260902195533 | 67 | 147 | 0.0 | 3.0 | 0.00 | 0.00 | 0.00 | 74 | 1027.8 |
| 20260902194517 | 67 | 85 | 1.0 | 1.0 | 0.00 | 0.00 | 0.00 | 74 | 1027.7 |
| 20260902193533 | 68 | 191 | 1.0 | 3.0 | 0.00 | 0.00 | 0.00 | 73 | 1027.6 |
| 20260902192517 | 68 | 118 | 1.0 | 2.0 | 0.00 | 0.00 | 0.00 | 72 | 1027.6 |
| 20260902191713 | 68 | 112 | 0.0 | 1.0 | 0.00 | 0.00 | 0.00 | 71 | 1027.6 |
| 20260902190517 | 69 | 86 | 1.0 | 3.0 | 0.00 | 0.00 | 0.00 | 69 | 1027.5 |
| 20260902185533 | 70 | 58 | 1.0 | 2.0 | 0.00 | 0.00 | 0.00 | 66 | 1027.2 |
| 20260902184517 | 71 | 353 | 1.0 | 3.0 | 0.00 | 0.00 | 0.00 | 64 | 1027.0 |
| 20260902183533 | 72 | 346 | 3.0 | 4.0 | 0.00 | 0.00 | 0.00 | 61 | 1026.8 |
| 20260902182518 | 72 | 330 | 4.0 | 6.0 | 0.00 | 0.00 | 0.00 | 60 | 1026.7 |
| 20260902181536 | 71 | 331 | 3.0 | 7.0 | 0.00 | 0.00 | 0.00 | 63 | 1026.5 |
| 20260902180517 | 73 | 331 | 1.0 | 2.0 | 0.00 | 0.00 | 0.00 | 60 | 1026.3 |
| 20260902175518 | 74 | 320 | 3.0 | 6.0 | 0.00 | 0.00 | 0.00 | 58 | 1026.2 |
| 20260902174523 | 74 | 318 | 5.0 | 10.0 | 0.00 | 0.00 | 0.00 | 57 | 1026.0 |
| 20260902173538 | 75 | 304 | 6.0 | 11.0 | 0.00 | 0.00 | 0.00 | 56 | 1026.0 |
| 20260902172531 | 74 | 322 | 6.0 | 10.0 | 0.00 | 0.00 | 0.00 | 58 | 1025.7 |
| 20260902171517 | 75 | 322 | 6.0 | 10.0 | 0.00 | 0.00 | 0.00 | 57 | 1025.7 |
| 20260902170524 | 75 | 320 | 5.0 | 10.0 | 0.00 | 0.00 | 0.00 | 58 | 1025.5 |
| 20260902165518 | 75 | 323 | 5.0 | 8.0 | 0.00 | 0.00 | 0.00 | 57 | 1025.3 |
| 20260902164527 | 75 | 335 | 4.0 | 7.0 | 0.00 | 0.00 | 0.00 | 57 | 1025.2 |
| 20260902163518 | 75 | 321 | 5.0 | 9.0 | 0.00 | 0.00 | 0.00 | 57 | 1025.2 |
| 20260902162527 | 76 | 330 | 5.0 | 9.0 | 0.00 | 0.00 | 0.00 | 56 | 1025.1 |
| 20260902161517 | 76 | 325 | 7.0 | 11.0 | 0.00 | 0.00 | 0.00 | 56 | 1025.1 |
| 20260902160520 | 77 | 329 | 7.0 | 10.0 | 0.00 | 0.00 | 0.00 | 55 | 1024.9 |
| 20260902155518 | 77 | 330 | 7.0 | 11.0 | 0.00 | 0.00 | 0.00 | 55 | 1025.0 |
| 20260902154527 | 77 | 324 | 5.0 | 10.0 | 0.00 | 0.00 | 0.00 | 54 | 1024.9 |
| 20260902153517 | 78 | 327 | 5.0 | 8.0 | 0.00 | 0.00 | 0.00 | 53 | 1024.8 |
| 20260902152633 | 78 | 328 | 6.0 | 13.0 | 0.00 | 0.00 | 0.00 | 53 | 1024.8 |
| 20260902151533 | 78 | 324 | 7.0 | 10.0 | 0.00 | 0.00 | 0.00 | 52 | 1024.9 |
| 20260902150517 | 79 | 320 | 6.0 | 9.0 | 0.00 | 0.00 | 0.00 | 52 | 1024.9 |
| 20260902145534 | 79 | 323 | 8.0 | 11.0 | 0.00 | 0.00 | 0.00 | 52 | 1024.9 |
| 20260902144517 | 79 | 322 | 8.0 | 13.0 | 0.00 | 0.00 | 0.00 | 52 | 1025.0 |
| 20260902143533 | 79 | 331 | 7.0 | 13.0 | 0.00 | 0.00 | 0.00 | 52 | 1025.0 |
| 20260902142517 | 79 | 328 | 8.0 | 15.0 | 0.00 | 0.00 | 0.00 | 52 | 1025.0 |
| 20260902141533 | 79 | 328 | 8.0 | 13.0 | 0.00 | 0.00 | 0.00 | 52 | 1025.0 |
| 20260902140525 | 79 | 323 | 9.0 | 17.0 | 0.00 | 0.00 | 0.00 | 52 | 1025.1 |
| 20260902135533 | 80 | 345 | 5.0 | 11.0 | 0.00 | 0.00 | 0.00 | 52 | 1025.1 |
| 20260902134517 | 79 | 335 | 5.0 | 14.0 | 0.00 | 0.00 | 0.00 | 52 | 1025.3 |
| 20260902133533 | 78 | 337 | 8.0 | 14.0 | 0.00 | 0.00 | 0.00 | 53 | 1025.2 |
| 20260902132518 | 78 | 325 | 7.0 | 14.0 | 0.00 | 0.00 | 0.00 | 53 | 1025.2 |
| 20260902131516 | 78 | 334 | 8.0 | 15.0 | 0.00 | 0.00 | 0.00 | 54 | 1025.4 |
| 20260902130517 | 77 | 338 | 7.0 | 15.0 | 0.00 | 0.00 | 0.00 | 56 | 1025.4 |
| 20260902125533 | 78 | 335 | 5.0 | 10.0 | 0.00 | 0.00 | 0.00 | 55 | 1025.4 |
| 20260902124517 | 78 | 344 | 8.0 | 14.0 | 0.00 | 0.00 | 0.00 | 55 | 1025.4 |
| 20260902123516 | 77 | 339 | 5.0 | 10.0 | 0.00 | 0.00 | 0.00 | 55 | 1025.6 |
| 20260902122518 | 78 | 324 | 4.0 | 8.0 | 0.00 | 0.00 | 0.00 | 55 | 1025.8 |
| 20260902121516 | 76 | 329 | 4.0 | 8.0 | 0.00 | 0.00 | 0.00 | 56 | 1025.9 |
| 20260902120517 | 76 | 339 | 5.0 | 9.0 | 0.00 | 0.00 | 0.00 | 56 | 1026.0 |
| 20260902115517 | 77 | 336 | 3.0 | 8.0 | 0.00 | 0.00 | 0.00 | 56 | 1026.3 |
| 20260902114528 | 76 | 335 | 2.0 | 6.0 | 0.00 | 0.00 | 0.00 | 60 | 1026.3 |
| 20260902113518 | 75 | 357 | 2.0 | 4.0 | 0.00 | 0.00 | 0.00 | 60 | 1026.4 |
| 20260902112528 | 74 | 330 | 4.0 | 6.0 | 0.00 | 0.00 | 0.00 | 59 | 1026.6 |
| 20260902111518 | 75 | 333 | 3.0 | 7.0 | 0.00 | 0.00 | 0.00 | 58 | 1026.7 |
| 20260902110524 | 74 | 6 | 2.0 | 4.0 | 0.00 | 0.00 | 0.00 | 59 | 1026.7 |
| 20260902105518 | 74 | 15 | 3.0 | 7.0 | 0.00 | 0.00 | 0.00 | 60 | 1027.0 |
| 20260902104527 | 74 | 326 | 2.0 | 3.0 | 0.00 | 0.00 | 0.00 | 59 | 1027.1 |
| 20260902103534 | 75 | 20 | 2.0 | 6.0 | 0.00 | 0.00 | 0.00 | 59 | 1027.2 |
| 20260902102538 | 73 | 17 | 1.0 | 4.0 | 0.00 | 0.00 | 0.00 | 62 | 1027.2 |
| 20260902101533 | 71 | 330 | 2.0 | 4.0 | 0.00 | 0.00 | 0.00 | 64 | 1027.6 |
| 20260902100518 | 71 | 353 | 2.0 | 6.0 | 0.00 | 0.00 | 0.00 | 64 | 1027.8 |
| 20260902095534 | 71 | 13 | 2.0 | 3.0 | 0.00 | 0.00 | 0.00 | 64 | 1027.8 |
| 20260902094518 | 72 | 322 | 1.0 | 3.0 | 0.00 | 0.00 | 0.00 | 65 | 1028.0 |
| 20260902093533 | 69 | 328 | 2.0 | 4.0 | 0.00 | 0.00 | 0.00 | 67 | 1028.1 |
| 20260902092517 | 70 | 79 | 1.0 | 3.0 | 0.00 | 0.00 | 0.00 | 64 | 1028.2 |
| 20260902091534 | 68 | 5 | 1.0 | 3.0 | 0.00 | 0.00 | 0.00 | 70 | 1028.3 |
| 20260902090518 | 68 | 38 | 1.0 | 2.0 | 0.00 | 0.00 | 0.00 | 68 | 1028.3 |
| 20260902085533 | 68 | 359 | 1.0 | 3.0 | 0.00 | 0.00 | 0.00 | 68 | 1028.4 |
| 20260902084518 | 68 | 15 | 1.0 | 2.0 | 0.00 | 0.00 | 0.00 | 68 | 1028.5 |
| 20260902083534 | 67 | 333 | 2.0 | 4.0 | 0.00 | 0.00 | 0.00 | 70 | 1028.5 |
| 20260902082517 | 68 | 11 | 1.0 | 4.0 | 0.00 | 0.00 | 0.00 | 71 | 1028.4 |
| 20260902081533 | 66 | 81 | 1.0 | 2.0 | 0.00 | 0.00 | 0.00 | 74 | 1028.6 |
| 20260902080518 | 65 | 29 | 2.0 | 4.0 | 0.00 | 0.00 | 0.00 | 78 | 1028.7 |
| 20260902075516 | 65 | 69 | 1.0 | 3.0 | 0.00 | 0.00 | 0.00 | 77 | 1028.8 |
| 20260902074518 | 64 | 50 | 1.0 | 3.0 | 0.00 | 0.00 | 0.00 | 80 | 1028.7 |
| 20260902073516 | 63 | 50 | 1.0 | 2.0 | 0.00 | 0.00 | 0.00 | 80 | 1028.8 |
| 20260902072518 | 63 | 68 | 1.0 | 2.0 | 0.00 | 0.00 | 0.00 | 81 | 1029.0 |
| 20260902071516 | 63 | 33 | 0.0 | 1.0 | 0.00 | 0.00 | 0.00 | 81 | 1028.9 |
| 20260902070538 | 62 | 85 | 1.0 | 2.0 | 0.00 | 0.00 | 0.00 | 83 | 1029.0 |
| 20260902065516 | 61 | 95 | 1.0 | 3.0 | 0.00 | 0.00 | 0.00 | 84 | 1029.0 |
| 20260902064518 | 60 | 26 | 0.0 | 1.0 | 0.00 | 0.00 | 0.00 | 85 | 1029.1 |
| 20260902063556 | 57 | 23 | 0.0 | 1.0 | 0.00 | 0.00 | 0.00 | 91 | 1029.2 |
| 20260902062517 | 57 | 52 | 1.0 | 2.0 | 0.00 | 0.00 | 0.00 | 90 | 1029.1 |
| 20260902061515 | 55 | 0.0 | 0.0 | 0.00 | 0.00 | 0.00 | 95 | 1028.9 | |
| 20260902060517 | 55 | 0.0 | 0.0 | 0.00 | 0.00 | 0.00 | 95 | 1028.8 | |
| 20260902055533 | 54 | 348 | 1.0 | 2.0 | 0.00 | 0.00 | 0.00 | 95 | 1028.9 |
| 20260902054517 | 54 | 0.0 | 0.0 | 0.00 | 0.00 | 0.00 | 95 | 1028.9 | |
| 20260902053533 | 54 | 28 | 0.0 | 1.0 | 0.00 | 0.00 | 0.00 | 95 | 1028.8 |
| 20260902052542 | 54 | 27 | 0.0 | 1.0 | 0.00 | 0.00 | 0.00 | 95 | 1028.8 |